When you browse on this site, cookies collect data to enhance your experience and personalize the content and advertising you see.
Visit our Privacy Policy to learn more. By continuing to use the site, you agree to this use of cookies and data.
  • en France
  • Liste des pays
  • À 7 jours
  • Température de l'eau
  • Carte météo
  • Widgets météo
  • user-avatar
    Se connecter

    Météo par heure à Airdrie

    Ce jour, 27 Mai, Mercredi

    Heure Température Précipitation Vent Pression Humidité
    00:00 +8°C° 0 mm 1 m/s 768 mmHg 84%
    01:00 +8°C° 0 mm 1 m/s 768 mmHg 83%
    02:00 +8°C° 0 mm 1 m/s 768 mmHg 83%
    03:00 +8°C° 0 mm 1 m/s 768 mmHg 82%
    04:00 +9°C° 0 mm 1 m/s 768 mmHg 80%
    05:00 +9°C° 0 mm 2 m/s 768 mmHg 79%
    06:00 +10°C° 0 mm 2 m/s 769 mmHg 78%
    07:00 +12°C° 0 mm 2 m/s 769 mmHg 73%
    08:00 +12°C° 0 mm 2 m/s 769 mmHg 68%
    09:00 +13°C° 0 mm 1 m/s 769 mmHg 63%
    10:00 +15°C° 0 mm 1 m/s 769 mmHg 60%
    11:00 +16°C° 0 mm 1 m/s 769 mmHg 56%
    12:00 +18°C° 0 mm 1 m/s 769 mmHg 52%
    13:00 +18°C° 0 mm 1 m/s 769 mmHg 53%
    14:00 +18°C° 0 mm 2 m/s 769 mmHg 54%
    15:00 +18°C° 0 mm 2 m/s 768 mmHg 54%
    16:00 +17°C° 0 mm 2 m/s 768 mmHg 58%
    17:00 +17°C° 0 mm 2 m/s 768 mmHg 62%
    18:00 +16°C° 0 mm 2 m/s 768 mmHg 65%
    19:00 +15°C° 0 mm 1 m/s 768 mmHg 67%
    20:00 +14°C° 0 mm 1 m/s 768 mmHg 69%
    21:00 +13°C° 0 mm 1 m/s 768 mmHg 71%
    22:00 +13°C° 0 mm 1 m/s 768 mmHg 72%
    23:00 +13°C° 0 mm 1 m/s 768 mmHg 73%

    Demain, 28 Mai, Jeudi

    Heure Température Précipitation Vent Pression Humidité
    00:00 +12°C° 0 mm 1 m/s 767 mmHg 74%
    01:00 +12°C° 0 mm 1 m/s 767 mmHg 75%
    02:00 +12°C° 0 mm 1 m/s 767 mmHg 76%
    03:00 +12°C° 0 mm 1 m/s 767 mmHg 77%
    04:00 +12°C° 0 mm 1 m/s 766 mmHg 78%
    05:00 +13°C° 0 mm 2 m/s 766 mmHg 79%
    06:00 +13°C° 0 mm 2 m/s 766 mmHg 80%
    07:00 +14°C° 0 mm 2 m/s 766 mmHg 77%
    08:00 +16°C° 0 mm 2 m/s 766 mmHg 74%
    09:00 +17°C° 0 mm 2 m/s 766 mmHg 71%
    10:00 +19°C° 0 mm 2 m/s 765 mmHg 69%
    11:00 +20°C° 0 mm 3 m/s 765 mmHg 67%
    12:00 +21°C° 0 mm 3 m/s 765 mmHg 65%
    13:00 +21°C° 0 mm 3 m/s 765 mmHg 64%
    14:00 +23°C° 0 mm 2 m/s 765 mmHg 64%
    15:00 +23°C° 0 mm 2 m/s 764 mmHg 64%
    16:00 +21°C° 0 mm 2 m/s 764 mmHg 67%
    17:00 +21°C° 0 mm 2 m/s 764 mmHg 70%
    18:00 +22°C° 0 mm 1 m/s 764 mmHg 73%
    19:00 +20°C° 0 mm 1 m/s 763 mmHg 78%
    20:00 +18°C° 0 mm 1 m/s 763 mmHg 83%
    21:00 +16°C° 0 mm 1 m/s 763 mmHg 88%
    22:00 +15°C° 0 mm 1 m/s 763 mmHg 88%
    23:00 +14°C° 0 mm 1 m/s 763 mmHg 88%

    Après-demain, 29 Mai, Vendredi

    Heure Température Précipitation Vent Pression Humidité
    00:00 +14°C° 0 mm 1 m/s 763 mmHg 88%
    01:00 +14°C° 0 mm 1 m/s 763 mmHg 89%
    02:00 +13°C° 0 mm 1 m/s 762 mmHg 89%
    03:00 +13°C° 0 mm 1 m/s 762 mmHg 89%
    04:00 +14°C° 0 mm 1 m/s 762 mmHg 88%
    05:00 +15°C° 0 mm 1 m/s 762 mmHg 87%
    06:00 +16°C° 0 mm 1 m/s 762 mmHg 86%
    07:00 +18°C° 0 mm 1 m/s 762 mmHg 80%
    08:00 +19°C° 0 mm 2 m/s 762 mmHg 75%
    09:00 +21°C° 0 mm 2 m/s 762 mmHg 69%
    10:00 +21°C° 0 mm 2 m/s 761 mmHg 67%
    11:00 +22°C° 0 mm 3 m/s 761 mmHg 64%
    12:00 +24°C° 0 mm 3 m/s 761 mmHg 62%
    13:00 +24°C° 0 mm 3 m/s 761 mmHg 62%
    14:00 +24°C° 0 mm 3 m/s 760 mmHg 62%
    15:00 +24°C° 0 mm 3 m/s 760 mmHg 62%
    16:00 +22°C° 0 mm 3 m/s 760 mmHg 64%
    17:00 +22°C° 0 mm 3 m/s 760 mmHg 66%
    18:00 +21°C° 0 mm 2 m/s 760 mmHg 68%
    19:00 +20°C° 0 mm 2 m/s 760 mmHg 73%
    20:00 +19°C° 0 mm 1 m/s 760 mmHg 77%
    21:00 +15°C° 0 mm 0 m/s 760 mmHg 82%
    22:00 +15°C° 0 mm 0 m/s 760 mmHg 83%
    23:00 +14°C° 0 mm 0 m/s 760 mmHg 84%

    30 Mai, Samedi

    Heure Température Précipitation Vent Pression Humidité
    00:00 +14°C° 0 mm 0 m/s 760 mmHg 85%
    01:00 +15°C° 0 mm 1 m/s 760 mmHg 86%
    02:00 +15°C° 0 mm 1 m/s 760 mmHg 88%
    03:00 +14°C° 0 mm 1 m/s 760 mmHg 89%
    04:00 +15°C° 0 mm 1 m/s 760 mmHg 88%
    05:00 +16°C° 0 mm 1 m/s 760 mmHg 87%
    06:00 +16°C° 0 mm 1 m/s 760 mmHg 86%
    07:00 +18°C° 0 mm 1 m/s 760 mmHg 81%
    08:00 +20°C° 0 mm 1 m/s 760 mmHg 77%
    09:00 +21°C° 0 mm 1 m/s 760 mmHg 72%
    10:00 +21°C° 0 mm 2 m/s 760 mmHg 69%
    11:00 +23°C° 0 mm 2 m/s 760 mmHg 66%
    12:00 +23°C° 0 mm 2 m/s 760 mmHg 63%
    13:00 +22°C° 0 mm 3 m/s 759 mmHg 64%
    14:00 +22°C° 0 mm 3 m/s 759 mmHg 66%
    15:00 +22°C° 0 mm 3 m/s 759 mmHg 67%
    16:00 +21°C° 0.1 mm 3 m/s 759 mmHg 70%
    17:00 +20°C° 0.1 mm 2 m/s 759 mmHg 73%
    18:00 +20°C° 0.1 mm 2 m/s 759 mmHg 76%
    19:00 +18°C° 0 mm 2 m/s 759 mmHg 79%
    20:00 +16°C° 0 mm 1 m/s 759 mmHg 82%
    21:00 +15°C° 0 mm 1 m/s 759 mmHg 85%
    22:00 +14°C° 0 mm 1 m/s 759 mmHg 86%
    23:00 +13°C° 0 mm 1 m/s 759 mmHg 87%

    31 Mai, Dimanche

    Heure Température Précipitation Vent Pression Humidité
    00:00 +12°C° 0 mm 1 m/s 759 mmHg 88%
    01:00 +12°C° 0 mm 1 m/s 759 mmHg 88%
    02:00 +11°C° 0 mm 1 m/s 759 mmHg 88%
    03:00 +11°C° 0 mm 1 m/s 759 mmHg 88%
    04:00 +11°C° 0 mm 1 m/s 759 mmHg 86%
    05:00 +12°C° 0 mm 1 m/s 759 mmHg 84%
    06:00 +12°C° 0 mm 1 m/s 759 mmHg 83%
    07:00 +14°C° 0 mm 1 m/s 759 mmHg 79%
    08:00 +15°C° 0 mm 2 m/s 759 mmHg 74%
    09:00 +17°C° 0 mm 2 m/s 759 mmHg 70%
    10:00 +18°C° 0.1 mm 2 m/s 759 mmHg 68%
    11:00 +19°C° 0.1 mm 2 m/s 759 mmHg 66%
    12:00 +20°C° 0.1 mm 2 m/s 759 mmHg 65%
    13:00 +20°C° 0.2 mm 2 m/s 758 mmHg 66%
    14:00 +20°C° 0.2 mm 2 m/s 758 mmHg 68%
    15:00 +20°C° 0.2 mm 2 m/s 758 mmHg 70%
    16:00 +19°C° 0.2 mm 2 m/s 757 mmHg 73%
    17:00 +19°C° 0.2 mm 2 m/s 757 mmHg 76%
    18:00 +18°C° 0.2 mm 2 m/s 757 mmHg 79%
    19:00 +18°C° 0.1 mm 1 m/s 757 mmHg 82%
    20:00 +16°C° 0.1 mm 1 m/s 757 mmHg 85%
    21:00 +15°C° 0.1 mm 1 m/s 757 mmHg 87%
    22:00 +14°C° 0 mm 1 m/s 757 mmHg 89%
    23:00 +13°C° 0 mm 2 m/s 757 mmHg 90%

    1 Juin, Lundi

    Heure Température Précipitation Vent Pression Humidité
    00:00 +12°C° 0 mm 2 m/s 757 mmHg 92%
    01:00 +12°C° 0 mm 2 m/s 756 mmHg 92%
    02:00 +12°C° 0 mm 2 m/s 756 mmHg 92%
    03:00 +10°C° 0 mm 2 m/s 756 mmHg 92%
    04:00 +12°C° 0 mm 2 m/s 756 mmHg 91%
    05:00 +13°C° 0 mm 1 m/s 756 mmHg 90%
    06:00 +13°C° 0 mm 1 m/s 755 mmHg 89%
    07:00 +14°C° 0.1 mm 2 m/s 755 mmHg 86%
    08:00 +15°C° 0.1 mm 2 m/s 755 mmHg 83%
    09:00 +17°C° 0.1 mm 2 m/s 755 mmHg 81%
    10:00 +17°C° 0.5 mm 2 m/s 755 mmHg 78%
    11:00 +18°C° 0.5 mm 2 m/s 755 mmHg 76%
    12:00 +19°C° 0.5 mm 2 m/s 755 mmHg 74%
    13:00 +19°C° 0.7 mm 2 m/s 755 mmHg 74%
    14:00 +19°C° 0.7 mm 2 m/s 755 mmHg 74%
    15:00 +20°C° 0.7 mm 2 m/s 755 mmHg 74%
    16:00 +19°C° 0.6 mm 2 m/s 754 mmHg 77%
    17:00 +18°C° 0.6 mm 2 m/s 754 mmHg 80%
    18:00 +18°C° 0.6 mm 2 m/s 754 mmHg 82%
    19:00 +16°C° 0.2 mm 2 m/s 755 mmHg 85%
    20:00 +15°C° 0.2 mm 2 m/s 755 mmHg 87%
    21:00 +13°C° 0.2 mm 2 m/s 755 mmHg 89%
    22:00 +12°C° 0 mm 2 m/s 755 mmHg 91%
    23:00 +10°C° 0 mm 2 m/s 755 mmHg 92%
    Voir plus